Powrót do katalogu

CZ-4 DEB

AktywnySSO
NORAD 26184·DEBRIS·🇨🇳 China

Wystrzelony Oct 14, 1999 z Taiyuan Satellite Launch Center

Loading…

Następne Przeloty (najbliższe 24 godziny)

TLE

ŚwieżeSource: Space-Track

Epoka: Sep 14, 2026, 09:45 UTC

1 26184U 99057BW  26257.40630298  .00000270  00000-0  98781-4 0  9991
2 26184  98.7230 313.4522 0104992  36.6688 324.1624 14.37926143386463

Śledź CZ-4 DEB w czasie rzeczywistym z AllMySat

Download on the App Store